Погода в Кайлах

Россия / Новосибирская область     55°17′44″N   84°05′11″E
темп.,
°C
ветер,
м/с
пор.,
м/с
влажн.,
%
обл.,
%
осадки,
мм/ч
давл.,
гПа
погр.,
м
15 апреля, чт
чт1501:00+2з3799100 0.1 1025207
04:00+2з2499100 0.0 102593
07:00+2юз2299100 0.0 102643
10:00+1ююз24100100 0.0 1026105
13:00+3ю26100100 0.1 1025178
16:00+2ююз39100100 0.0 1025224
19:00+2ююз410100100 0.1 1023241
22:00+2ююз411100100 0.0 1022270
16 апреля, пт
пт1601:00+3ююз512100100 0.1 1020314
04:00+2юз41199100 0.1 1018298
07:00+2юз61298100 0.1 1018339
10:00+4юз613100100 0.0 1016421
13:00+5юз71498100 0.0 1015458
16:00+8юз9168976 0.0 1012625
19:00+9зюз7138486 0.0 1011484
22:00+1с61292100 0.4 1016556
17 апреля, сб
сб1701:000с5991100 1.2 1018732
04:00−1с688796 0.1 1020798
07:00−4ссв578574 0.1 1022609
10:00−3св446795 0.0 1023886
13:000св335759 0.0 10221057
16:00+1ссв2153100 0.0 10211152
19:00+1сз2354100 0.0 10201166
22:00−1зсз24715 0.0 1021102
18 апреля, вс
вс1801:00−2з36735 0.0 1021229
04:00−2зюз3569100 0.0 1021211
07:00−1юз3665100 0.0 1021302
10:00+1ююз5650100 0.0 1020678
13:00+3ююз6744100 0.0 10181181
16:00+4ююз6848100 0.0 10151308
19:00+4ю61061100 0.0 1013746
22:00+2ююв61468100 0.0 1009408
19 апреля, пн
пн1901:00+1ю81584100 0.0 1004520
04:00+2юз81497100 2.2 999792
07:000зюз8139796 3.3 1000995
10:00−2зюз111578100 0.4 10031432
13:00−3з111571100 0.7 10081673
16:00−2зсз101468100 0.1 10131722
19:00−2зсз81267100 0.3 10161611
22:00−4зсз6106910 0.0 10191034